Flag for U.S.A. Weather past 2 weeks in Overland Park, Kansas, U.S.A.

35 °F


Feels Like: 32 °F
Forecast: 32 / 40 °F
Wind: 3 mph from Northeast

Location: Johnson County Executive Airport

Current Time: Nov 30, 2015 at 3:54:22 AM

Latest Report: Nov 30, 2015 at 2:53 AM

Visibility: 2 mi

Pressure: 30.08 "Hg

Humidity: 100%

Dew point: 35 °F

Location of Overland ParkLocation

Historic Weather in Overland Park — Graph


Overland Park temperature yesterday

Maximum temperature yesterday: 35 °F (at 1:53 PM)
Minimum temperature yesterday: 32 °F (at 12:53 AM)
Average temperature yesterday: 34 °F

Past Weeks' High & Low Weather Summary

High63 °F (Nov 26, 11:03 AM)100% (Nov 17, 9:53 AM)30.43 "Hg (Nov 17, 9:53 AM)
Low25 °F (Nov 21, 9:53 PM)25% (Nov 19, 3:53 PM)29.34 "Hg (Nov 18, 4:53 AM)
Average44 °F74%30.05 "Hg
* Reported Nov 15 2:53 AM — Nov 30 2:53 AM, Overland Park, Weather by CustomWeather, © 2015

Note: Actual official high and low records may vary slightly from our data, if they occured in-between our weather recording intervals... More about our weather records


Overland Park weather history for previous 24 hours

Time TempWeatherWind HumidityBarometerVisibility
2:53 AM
Mon, Nov 30
35 °FFog.3 mph100%30.08 "Hg2 mi
1:53 AM35 °FFog.6 mph100%30.09 "Hg3 mi
12:53 AM35 °FLow clouds.7 mph96%30.10 "Hg10 mi
11:53 PM
Sun, Nov 29
35 °FLight rain. Fog.7 mph96%30.13 "Hg6 mi
10:53 PM35 °FLow clouds.7 mph96%30.14 "Hg10 mi
9:53 PM35 °FLow clouds.7 mph96%30.15 "Hg8 mi
9:01 PM35 °FLow clouds.6 mph96%30.16 "Hg7 mi
7:53 PM34 °FFog.7 mph100%30.19 "Hg3 mi
6:53 PM35 °FLight rain. Fog.5 mph96%30.20 "Hg4 mi
5:53 PM35 °FLight rain. Fog.5 mph96%30.19 "Hg2 mi
4:53 PM35 °FRain. Fog.7 mph96%30.18 "Hg2 mi
3:53 PM35 °FLight rain. Fog.8 mph96%30.18 "Hg2 mi
2:53 PM35 °FLight rain. Fog.6 mph96%30.20 "Hg6 mi
1:53 PM35 °FLight rain. Fog.5 mph96%30.22 "Hg5 mi
12:53 PM34 °FLight rain. Fog.8 mph97%30.22 "Hg3 mi
11:53 AM34 °FLight rain. Fog.9 mph97%30.24 "Hg3 mi
10:53 AM33 °FRain. Fog.7 mph96%30.28 "Hg2 mi
9:53 AM33 °FLight rain. Fog.13 mph96%30.26 "Hg6 mi
8:53 AM33 °FLight rain. Fog.8 mph92%30.30 "Hg3 mi
8:00 AM32 °FLight snow. Ice fog.8 mph96%30.26 "Hg2 mi
6:53 AM32 °FLight snow. Low clouds.9 mph96%30.29 "Hg7 mi
5:53 AM32 °FLow clouds.8 mph96%30.31 "Hg7 mi
4:53 AM32 °FIce fog.10 mph96%30.29 "Hg6 mi
3:53 AM32 °FIce fog.9 mph96%30.30 "Hg6 mi
Weather by CustomWeather, © 2015

See weather overviewHow to use our weather pages